sat.trackr.live / text

‹ back to catalog

STARLINK-35455

NORAD 66152 · 2025-240G

PAYLOAD ACTIVE UNKNOWN

§ Identity

Operator
Country
US
Launch date
2025-10-25
Launch site
AFWTR
Launch vehicle
Mass (kg)
RCS (m²)

Purposes: comms

External: N2YO · Heavens-Above · Gunter

§ Orbital elements

Epoch: 2026-09-20T22:39:51.858144Z

Period
93.85 min
Inclination
53.1551°
Eccentricity
0.0000859
Mean motion
15.34405372 rev/d
Perigee alt
462.1 km
Apogee alt
463.3 km
Semi-major
6,840.8 km
B*
6.3578e-4
RAAN
231.5655°
Arg perigee
56.7512°
Mean anomaly
303.3573°
Rev number
5,194

§ Raw data

STARLINK-354551 66152U 25240G   26263.94435021  .00021169  00000+0  63578-3 0  99902 66152  53.1551 231.5655 0000859  56.7512 303.3573 15.34405372 51944

JSON: /api/v1/satellites/66152 · /tle

For live sub-satellite position, see the globe view (requires WebGL).

§ Visibility from observer

Set your observer location to see the next 7 days of passes ≥ 10°. The values pass through the URL so the page stays shareable.

No JS? Fill the form by hand. The geolocation button needs JavaScript.